Greenville Downtown, SC

2:31 AM EST on February 18, 2018 (GMT -0500)
Greenville Downtown

Weather History for KGMU - May, 2012

Change the Weather History Date:

Thursday, May 17, 2012

  Actual Average Record
Temperature  
Mean Temperature 72 °F -  
Max Temperature 79 °F 78 °F 88 °F (2017)
Min Temperature 64 °F 57 °F 46 °F (2014)
Cooling Degree Days 6    
Growing Degree Days 22 (Base 50)    
Moisture  
Dew Point 58 °F    
Average Humidity 66    
Maximum Humidity 78    
Minimum Humidity 46    
Precipitation  
Precipitation 0.00 in - - ()
Sea Level Pressure  
Sea Level Pressure 29.97 in    
Wind  
Wind Speed 7 mph (NE)    
Max Wind Speed 13 mph    
Max Gust Speed 20 mph    
Visibility 10 miles    
Events Thunderstorm    
Averages and records for this station are not official NWS values.
T = Trace of Precipitation, MM = Missing Value Source: NWS Daily Summary

Daily Weather History Graph

Daily Weather History Graph

Search for Another Location

Airport or City:

Trip Planner

Search our weather history database for the weather conditions in past years. The results will help you decide how hot, cold, wet, or windy it might be!

Date:

Astronomy

May. 17, 2012 Rise Set
Actual Time 6:24 AM EDT 8:27 PM EDT
Civil Twilight 5:56 AM EDT 8:55 PM EDT
Nautical Twilight 5:21 AM EDT 9:30 PM EDT
Astronomical Twilight 4:45 AM EDT 10:07 PM EDT
Moon 4:15 AM EDT (5/17) 5:43 PM EDT (5/17)
Length of Visible Light 14h 59m
Length of Day
14h 03m
Waning Crescent, 10% of the Moon is Illuminated
May 17
Waning Crescent
May 20
New
May 28
First Quarter
Jun 4
Full
Jun 11
Last Quarter

Hourly Weather History & Observations

Time (EDT) Temp. Dew Point Humidity Pressure Visibility Wind Dir Wind Speed Gust Speed Precip Events Conditions
12:53 AM 66.9 °F 57.9 °F 73% 29.98 in 10.0 mi ESE 10.4 mph 19.6 mph N/A Thunderstorm Overcast
1:06 AM 66.2 °F 57.2 °F 73% 29.99 in 10.0 mi East 9.2 mph - N/A   Overcast
1:53 AM 66.9 °F 57.0 °F 70% 29.95 in 10.0 mi North 9.2 mph - N/A   Mostly Cloudy
2:12 AM 66.2 °F 57.2 °F 73% 29.98 in 10.0 mi Calm Calm - N/A Thunderstorm Scattered Clouds
2:27 AM 66.2 °F 57.2 °F 73% 29.98 in 10.0 mi SW 3.5 mph - N/A   Partly Cloudy
2:53 AM 64.9 °F 57.0 °F 75% 29.95 in 10.0 mi West 6.9 mph - N/A   Clear
3:53 AM 66.0 °F 57.9 °F 75% 29.94 in 10.0 mi NNW 4.6 mph - N/A   Clear
4:53 AM 64.9 °F 57.9 °F 78% 29.94 in 10.0 mi Calm Calm - N/A   Clear
5:53 AM 64.9 °F 57.0 °F 75% 29.93 in 10.0 mi North 6.9 mph - N/A   Clear
6:53 AM 64.9 °F 55.9 °F 73% 29.96 in 10.0 mi North 5.8 mph - N/A   Clear
7:53 AM 68.0 °F 55.9 °F 65% 29.96 in 10.0 mi North 8.1 mph - N/A   Clear
8:53 AM 71.1 °F 57.0 °F 61% 29.97 in 10.0 mi NNE 9.2 mph - N/A   Clear
9:53 AM 73.0 °F 55.9 °F 55% 29.98 in 10.0 mi NE 9.2 mph - N/A   Scattered Clouds
10:53 AM 75.0 °F 55.0 °F 50% 29.99 in 10.0 mi NE 12.7 mph - N/A   Clear
11:53 AM 75.9 °F 57.0 °F 52% 29.99 in 10.0 mi ENE 11.5 mph - N/A   Clear
12:53 PM 77.0 °F 59.0 °F 54% 29.99 in 10.0 mi East 10.4 mph - N/A   Clear
1:53 PM 79.0 °F 59.0 °F 50% 29.97 in 10.0 mi North 6.9 mph - N/A   Clear
2:53 PM 78.1 °F 57.9 °F 50% 29.95 in 10.0 mi East 8.1 mph - N/A   Clear
3:53 PM 78.1 °F 55.9 °F 46% 29.94 in 10.0 mi ESE 8.1 mph - N/A   Clear
4:53 PM 71.1 °F 59.0 °F 66% 29.95 in 10.0 mi SSE 5.8 mph - N/A   Clear
5:53 PM 71.1 °F 57.9 °F 63% 29.95 in 10.0 mi Calm Calm - N/A   Clear
6:53 PM 73.0 °F 60.1 °F 64% 29.96 in 10.0 mi Calm Calm - N/A   Clear
7:53 PM 70.0 °F 57.9 °F 65% 29.98 in 10.0 mi SSE 3.5 mph - N/A   Clear
8:53 PM 68.0 °F 59.0 °F 73% 29.99 in 10.0 mi Calm Calm - N/A   Clear
9:53 PM 66.9 °F 59.0 °F 76% 30.01 in 10.0 mi North 3.5 mph - N/A   Clear
10:53 PM 68.0 °F 59.0 °F 73% 30.04 in 10.0 mi Calm Calm - N/A   Overcast
11:53 PM 68.0 °F 59.0 °F 73% 30.04 in 10.0 mi East 3.5 mph - N/A   Mostly Cloudy